Lübeck Blankensee Airport

Jump to: basic info | weather | frequencies | runways | comments

Related pages: nearby airports | nearby navaids | notams | map

Basic information (top)

Codes: LBC EDHL
Location: lon 53.805401, lat 10.719200, elev 53 ft / 16 m msl
Status: medium_airport
Scheduled airline service: yes
Links: Wikipedia Mobile

Weather (top)

Current conditions (rec'd 2014/08/30 20:50Z):

EDHL 302050Z VRB01KT 9999 FEW008 SCT014 14/12 Q1013 RMK ATIS HOT

Airport forecast for Hamburg Airport 28nm (52km) WSW (rec'd 2014/08/30 00:27Z):

TAF EDDH 302300Z 3100/0106 22004KT 9999 SCT012 
      BECMG 3100/3103 4500 BR BKN006 
      TEMPO 3102/3107 1200 BR BKN002 
      BECMG 3107/3109 9999 BKN030 
      TEMPO 3109/3118 4000 SHRA PROB30 3110/3118 TSRA BKN012CB 
      BECMG 3111/3114 33005KT 
      BECMG 3120/3123 VRB03KT 2500 BR BKN004 
      TEMPO 3122/0106 0400 FG OVC001

Frequencies (top)

Verify before use: may be inaccurate or out of date.

AFIS: 125.1 MHz (BREMEN INFO)
ATIS: 119.925 MHz (ATIS)
GND: 121.775 MHz (GND)
INFO: 128.7 MHz (INFO)
RDR: 124.225 MHz (BREMEN RADAR)
TWR: 128.7 MHz (TWR)

Runways (top)

07/25: 6,896 x 197 ft (2,102 x 60 m) — paved — lighted — threshold 07 displaced 984 ft (300 m)

Latest comments (top)

No comments yet for Lübeck Blankensee Airport

More... (top)

See also NOTAMs and nearby airports and navaids, or visit the Lübeck Blankensee Airport page at the main OurAirports website..